[[{"header":{"parameterUnit":"m.s-1","parameterCategory":1,"la1":30.2991,"la2":30.254,"lo1":-89.0895,"lo2":-89.0444,"dy":0.0017,"dx":0.0017,"nx":28,"ny":28,"refTime":"2025-09-17T21:00:00:Z","depth":0,"parameterNumber":2,"parameterNumberName":"U-component_of_WINDS"},"data":[0,0,0,0,0,0,0,0,0,0,0,0,0,0,0,0,0,0,0,0,0,0,0,0,0,0,0,0,0,0,0,0,0,0,0,0,0,0,0,0,0,0,0,0,0,0,0,0,0,0,0,0,0,0,0,0,0,0,-0.5433,-0.5433,0,-0.5408,-0.5408,-0.5408,-0.5359,-0.5358,-0.5357,-0.5357,-0.5333,-0.5333,-0.5333,0,0,0,0,0,0,0,0,0,0,0,0,0,-0.5439,-0.5439,-0.5433,-0.5433,-0.5432,-0.5408,-0.5408,-0.5408,-0.536,-0.5358,-0.5357,-0.5356,-0.5333,-0.5333,-0.5333,0,0,0,0,0,0,0,0,0,0,0,0,0,-0.5428,-0.544,-0.5433,-0.5405,-0.5403,-0.5409,-0.5408,-0.5408,-0.536,-0.5358,-0.5357,-0.5356,-0.5333,-0.5333,-0.5333,-0.5365,0,0,-0.5335,-0.5335,0,0,0,0,0,0,0,0,-0.5429,-0.5428,-0.541,-0.5407,-0.5404,-0.5385,-0.5402,-0.5393,-0.536,-0.5376,-0.5357,-0.5355,-0.5352,-0.535,-0.5349,-0.5364,-0.5363,-0.5335,-0.5335,-0.5335,-0.5335,0,0,0,0,0,0,0,-0.543,-0.5429,-0.5423,-0.5409,-0.5406,-0.5395,-0.5391,-0.54,-0.5372,-0.5375,-0.5371,-0.5369,-0.535,-0.5349,-0.5348,-0.5362,-0.5335,-0.5335,-0.5335,-0.5335,-0.5402,-0.5404,0,0,0,0,0,0,-0.5434,-0.543,-0.5424,-0.5422,-0.5413,-0.5396,-0.5392,-0.5393,-0.5372,-0.5367,-0.537,-0.5367,-0.5349,-0.5348,-0.5347,-0.5383,-0.5335,-0.5336,-0.5336,-0.5401,-0.5403,-0.5404,0,0,0,0,0,0,-0.5434,-0.5434,-0.5425,-0.5425,-0.5423,-0.5397,-0.5398,-0.5393,-0.5392,-0.5369,-0.5364,-0.5374,-0.5348,-0.5347,-0.5361,-0.5381,-0.5336,-0.5336,-0.5399,-0.5401,-0.5403,-0.5455,0,0,0,0,0,0,-0.5435,-0.5434,-0.5446,-0.5426,-0.5423,-0.5439,-0.54,-0.5394,-0.5393,-0.5388,-0.5371,-0.5367,-0.5346,-0.5361,-0.5361,-0.5381,-0.5336,-0.5397,-0.54,-0.5403,-0.5451,-0.5459,-0.5465,0,0,0,0,0,-0.5435,-0.5461,-0.5447,-0.5446,-0.5437,-0.544,-0.5439,-0.5415,-0.5395,-0.5406,-0.5391,-0.5367,-0.5379,-0.5362,-0.5363,-0.5383,-0.5396,-0.5399,-0.5402,-0.5448,-0.5457,-0.5465,0,0,0,0,0,0,-0.5485,-0.5458,-0.5442,-0.5462,-0.5454,-0.5432,-0.5446,-0.5425,-0.5423,-0.5418,-0.5389,-0.5385,-0.5404,-0.5395,-0.5377,-0.5413,-0.5384,-0.5387,-0.5418,-0.5427,-0.5433,-0.5436,-0.5337,0,0,0,0,0,-0.5498,-0.5503,-0.5479,-0.55,-0.5496,-0.5472,-0.5472,-0.5454,-0.5445,-0.5441,-0.5427,-0.5419,-0.5421,-0.5423,-0.5424,-0.5449,-0.5446,-0.5464,-0.5471,-0.5476,-0.548,-0.5494,-0.5502,-0.5416,-0.5416,-0.5415,0,0,-0.5526,-0.5512,-0.5517,-0.5509,-0.5501,-0.5507,-0.5469,-0.5477,-0.5482,-0.5443,-0.5455,-0.5445,-0.5434,-0.5455,-0.5463,-0.5448,-0.5503,-0.5481,-0.5486,-0.5486,-0.5498,-0.5507,-0.5514,-0.5418,-0.5417,-0.5417,0,0,-0.558,-0.5569,-0.5585,-0.5578,-0.5565,-0.5549,-0.5553,-0.5534,-0.5525,-0.5538,-0.5509,-0.5514,-0.5517,-0.5511,-0.5508,-0.556,-0.5538,-0.5561,-0.5597,-0.5611,-0.5618,-0.5624,-0.5643,-0.565,-0.5565,-0.5565,-0.5565,0,-0.5616,-0.5624,-0.5596,-0.5606,-0.5604,-0.5569,-0.5585,-0.5579,-0.5568,-0.5567,-0.555,-0.5554,-0.5545,-0.5563,-0.5576,-0.5575,-0.5579,-0.5563,-0.5619,-0.5625,-0.563,-0.5648,-0.5655,-0.5568,-0.5567,-0.5567,-0.5567,0,-0.5669,-0.5675,-0.569,-0.5679,-0.5678,-0.5692,-0.5667,-0.567,-0.5652,-0.5637,-0.5651,-0.5638,-0.5635,-0.5638,-0.5621,-0.5655,-0.5646,-0.5624,-0.5594,-0.5642,-0.5658,-0.5665,-0.5572,-0.5571,-0.557,-0.5569,0,0,-0.5755,-0.5729,-0.5735,-0.573,-0.5713,-0.5717,-0.5729,-0.5726,-0.573,-0.5723,-0.5733,-0.5736,-0.5717,-0.5714,-0.5695,-0.5707,-0.575,-0.5684,-0.5684,-0.5698,-0.5788,-0.5805,-0.5813,-0.5735,-0.5736,-0.5737,-0.5789,0,-0.5806,-0.5824,-0.58,-0.5824,-0.5829,-0.5795,-0.5806,-0.5797,-0.5784,-0.5787,-0.5772,-0.5776,-0.5749,-0.5747,-0.5757,-0.5743,-0.5768,-0.5739,-0.5745,-0.5746,-0.575,-0.5822,-0.584,-0.5889,-0.5795,-0.5796,-0.5797,0,-0.5868,-0.5864,-0.5888,-0.587,-0.5872,-0.5881,-0.5877,-0.588,-0.587,-0.5859,-0.5856,-0.5834,-0.5845,-0.5815,-0.583,-0.5811,-0.5812,-0.5805,-0.5807,-0.5807,-0.5775,-0.5825,-0.5904,-0.5912,-0.5807,-0.5806,-0.5805,0,-0.5929,-0.5929,-0.5944,-0.5941,-0.592,-0.5928,-0.592,-0.5908,-0.5908,-0.5904,-0.5904,-0.5902,-0.5901,-0.59,-0.5878,-0.5859,-0.5897,-0.5865,-0.5889,-0.589,-0.5899,-0.5899,-0.5981,-0.5898,-0.5898,-0.5898,-0.5898,0,-0.5989,-0.6006,-0.5971,-0.5981,-0.5998,-0.597,-0.5989,-0.5977,-0.5967,-0.5974,-0.5945,-0.5952,-0.5922,-0.5926,-0.5909,-0.5925,-0.5924,-0.5917,-0.5912,-0.592,-0.5921,-0.5921,-0.5918,-0.59,-0.59,-0.5899,-0.5899,0,-0.6061,-0.6038,-0.6053,-0.6032,-0.6027,-0.6041,-0.6023,-0.6032,-0.6016,-0.6025,-0.6026,-0.6002,-0.6006,-0.5983,-0.5983,-0.5971,-0.5996,-0.5985,-0.5999,-0.5996,-0.6022,-0.6021,-0.6107,-0.6118,-0.6028,-0.6029,-0.603,0,-0.6101,-0.6113,-0.6094,-0.6096,-0.6089,-0.6093,-0.6093,-0.6066,-0.6067,-0.6056,-0.6066,-0.6066,-0.6066,-0.6073,-0.6056,-0.6056,-0.6045,-0.6076,-0.6045,-0.6053,-0.6047,-0.6047,-0.6049,-0.6083,-0.6084,-0.6085,-0.6085,0,-0.6176,-0.6164,-0.6165,-0.6161,-0.6162,-0.6158,-0.6152,-0.6156,-0.6127,-0.6129,-0.6132,-0.6132,-0.6131,-0.6133,-0.6129,-0.6121,-0.6099,-0.6095,-0.6101,-0.6109,-0.6118,-0.6115,-0.6018,-0.6093,-0.6093,-0.6092,-0.6092,-0.6091,-0.6234,-0.6243,-0.6231,-0.6233,-0.6225,-0.6221,-0.6227,-0.6213,-0.6214,-0.6212,-0.6195,-0.6202,-0.6191,-0.6184,-0.6178,-0.6183,-0.6168,-0.6176,-0.6179,-0.6182,-0.6187,-0.6116,-0.6182,-0.6182,-0.6181,-0.6181,-0.6181,0,-0.6308,-0.6298,-0.63,-0.6293,-0.6294,-0.6272,-0.6265,-0.6268,-0.6273,-0.6265,-0.6265,-0.6269,-0.627,-0.6253,-0.6253,-0.626,-0.625,-0.6261,-0.6261,-0.6259,-0.6199,-0.6195,-0.6269,-0.6269,-0.6269,-0.6269,-0.6269,-0.6269,-0.6347,-0.6362,-0.6349,-0.636,-0.635,-0.6355,-0.6353,-0.6349,-0.6342,-0.6348,-0.6348,-0.6337,-0.6326,-0.6324,-0.6325,-0.6319,-0.6321,-0.6336,-0.6328,-0.6272,-0.6264,-0.6255,-0.6251,-0.6336,-0.6336,-0.6388,-0.6388,-0.6389]},{"header":{"parameterUnit":"m.s-1","parameterCategory":1,"la1":30.2991,"la2":30.254,"lo1":-89.0895,"lo2":-89.0444,"dy":0.0017,"dx":0.0017,"nx":28,"ny":28,"refTime":"2025-09-17T21:00:00:Z","depth":0,"parameterNumber":3,"parameterNumberName":"V-component_of_WINDS"},"data":[0,0,0,0,0,0,0,0,0,0,0,0,0,0,0,0,0,0,0,0,0,0,0,0,0,0,0,0,0,0,0,0,0,0,0,0,0,0,0,0,0,0,0,0,0,0,0,0,0,0,0,0,0,0,0,0,0,0,3.6584,3.6584,0,3.6608,3.6608,3.6608,3.6576,3.6574,3.6573,3.6572,3.6594,3.6596,3.6597,0,0,0,0,0,0,0,0,0,0,0,0,0,3.6506,3.6508,3.6584,3.6584,3.6584,3.6608,3.6608,3.6608,3.6576,3.6574,3.6573,3.6572,3.6593,3.6595,3.6597,0,0,0,0,0,0,0,0,0,0,0,0,0,3.6536,3.6508,3.6584,3.6571,3.657,3.6608,3.6608,3.6608,3.6576,3.6574,3.6573,3.6571,3.6593,3.6595,3.6598,3.6648,0,0,3.6605,3.6606,0,0,0,0,0,0,0,0,3.6534,3.6539,3.6573,3.6572,3.6571,3.6587,3.6589,3.6622,3.6577,3.6574,3.6572,3.657,3.6593,3.6595,3.6603,3.6649,3.665,3.6605,3.6607,3.6608,3.6609,0,0,0,0,0,0,0,3.6532,3.6537,3.6593,3.6573,3.6572,3.6563,3.6565,3.6595,3.6593,3.6574,3.6572,3.6575,3.6592,3.6601,3.6604,3.665,3.6605,3.6608,3.6609,3.661,3.6736,3.6738,0,0,0,0,0,0,3.6532,3.6536,3.6592,3.6594,3.6548,3.6566,3.6568,3.6584,3.6592,3.6592,3.6576,3.6573,3.6598,3.6601,3.6604,3.6662,3.6608,3.661,3.6612,3.6734,3.6736,3.6738,0,0,0,0,0,0,3.6531,3.6537,3.6591,3.6564,3.6571,3.6569,3.6586,3.6585,3.6594,3.6594,3.6593,3.6586,3.6596,3.6601,3.6637,3.6662,3.6611,3.6614,3.6732,3.6735,3.6737,3.6778,0,0,0,0,0,0,3.6528,3.6537,3.6557,3.6565,3.6572,3.6625,3.6588,3.6587,3.6599,3.6595,3.6603,3.6603,3.6595,3.6633,3.664,3.6665,3.6616,3.673,3.6733,3.6736,3.6775,3.6782,3.6789,0,0,0,0,0,3.6526,3.6567,3.6558,3.6565,3.6597,3.6626,3.663,3.6621,3.6601,3.662,3.662,3.6603,3.6659,3.6637,3.6644,3.667,3.6728,3.6732,3.6736,3.6772,3.6781,3.6788,0,0,0,0,0,0,3.6561,3.6568,3.6558,3.6604,3.6615,3.6621,3.6645,3.6632,3.6648,3.6644,3.6631,3.6634,3.6672,3.6675,3.6651,3.6718,3.669,3.6695,3.6715,3.6723,3.673,3.6727,3.6618,0,0,0,0,0,3.6575,3.6599,3.6603,3.6643,3.6649,3.6646,3.6659,3.6651,3.6662,3.6666,3.6668,3.6678,3.6698,3.6711,3.673,3.6776,3.6776,3.6797,3.6804,3.681,3.6814,3.6836,3.6845,3.6752,3.6752,3.6752,0,0,3.6602,3.6609,3.6625,3.6651,3.6658,3.6682,3.665,3.6677,3.6694,3.667,3.6703,3.6706,3.6716,3.6757,3.6775,3.6761,3.684,3.6815,3.682,3.6821,3.6842,3.685,3.6858,3.6755,3.6754,3.6754,0,0,3.6664,3.6673,3.6706,3.6714,3.6726,3.6724,3.6732,3.674,3.6741,3.6775,3.6756,3.6776,3.6811,3.6818,3.6827,3.6891,3.6875,3.6898,3.6933,3.6955,3.6962,3.6969,3.6989,3.6997,3.6902,3.6902,3.6902,0,3.6696,3.6732,3.6724,3.6752,3.6763,3.6743,3.6775,3.6783,3.6801,3.6808,3.6792,3.6835,3.684,3.6882,3.6897,3.6906,3.6913,3.6895,3.6962,3.6968,3.6974,3.6993,3.7002,3.6905,3.6905,3.6904,3.6904,0,3.677,3.6795,3.682,3.6838,3.6852,3.6882,3.6877,3.6892,3.6884,3.6882,3.6916,3.6923,3.6941,3.6951,3.6943,3.6991,3.6981,3.6964,3.6935,3.6986,3.7003,3.7011,3.6908,3.6908,3.6907,3.6906,0,0,3.6853,3.6866,3.6875,3.6882,3.6894,3.6912,3.6941,3.696,3.6972,3.6985,3.7007,3.7037,3.7021,3.7031,3.7023,3.7043,3.7091,3.7023,3.7023,3.7033,3.7141,3.7152,3.7161,3.7081,3.7082,3.7084,3.7139,0,3.6912,3.6962,3.6956,3.7003,3.7025,3.7007,3.7031,3.704,3.704,3.7058,3.7058,3.7078,3.7057,3.7062,3.7081,3.7081,3.7112,3.7077,3.7099,3.71,3.7095,3.717,3.7182,3.7234,3.7146,3.7148,3.7149,0,3.6988,3.7004,3.7054,3.7061,3.707,3.7092,3.7108,3.7126,3.7136,3.7134,3.7145,3.7134,3.7161,3.7133,3.7169,3.7146,3.7155,3.7156,3.7158,3.7157,3.7126,3.7169,3.7251,3.7258,3.716,3.7159,3.7158,0,3.704,3.7074,3.7108,3.7115,3.7125,3.7141,3.7145,3.7154,3.7165,3.7179,3.7185,3.7202,3.7211,3.7224,3.7217,3.7198,3.7253,3.7225,3.7251,3.7251,3.7261,3.726,3.7343,3.7272,3.7272,3.7271,3.7271,0,3.7106,3.7136,3.7131,3.7152,3.7185,3.7177,3.7209,3.7212,3.7219,3.7238,3.7224,3.7242,3.7234,3.7251,3.7246,3.7275,3.728,3.7278,3.7276,3.7278,3.7278,3.7282,3.7277,3.7273,3.7273,3.7273,3.7272,0,3.7169,3.7167,3.7202,3.7209,3.7211,3.7235,3.724,3.7259,3.7258,3.7282,3.7288,3.7286,3.7306,3.7301,3.7323,3.7319,3.7355,3.735,3.7352,3.7349,3.7374,3.7371,3.746,3.747,3.7395,3.7396,3.7396,0,3.721,3.7233,3.7242,3.7254,3.726,3.7281,3.7292,3.7285,3.7297,3.731,3.7326,3.7345,3.7359,3.7391,3.7391,3.7407,3.74,3.743,3.7402,3.7403,3.7397,3.7395,3.7396,3.7435,3.7436,3.7436,3.7437,0,3.7281,3.7279,3.7296,3.7313,3.7327,3.734,3.7352,3.7362,3.7356,3.7371,3.7391,3.7402,3.7424,3.7442,3.7456,3.746,3.7447,3.7446,3.7453,3.7453,3.7453,3.7451,3.7364,3.7444,3.7443,3.7442,3.7442,3.7442,3.7332,3.7351,3.736,3.738,3.7388,3.7399,3.7416,3.7417,3.7434,3.7451,3.7447,3.7469,3.7477,3.7496,3.7501,3.7518,3.7506,3.7516,3.7518,3.752,3.7521,3.7452,3.7521,3.7521,3.752,3.752,3.752,0,3.74,3.7406,3.7424,3.744,3.7455,3.7443,3.7455,3.7468,3.7488,3.7497,3.7512,3.7534,3.7551,3.7553,3.7569,3.7582,3.7576,3.7586,3.7583,3.7584,3.7532,3.7524,3.759,3.759,3.759,3.759,3.759,3.759,3.7438,3.7468,3.7467,3.7501,3.7505,3.7528,3.7535,3.7544,3.7551,3.7577,3.7592,3.7593,3.7599,3.7615,3.763,3.763,3.7635,3.7647,3.7644,3.7595,3.7588,3.7581,3.7573,3.7648,3.7649,3.7694,3.7694,3.7695]}]]